SCP
1 1 1 2 2 2 3 3 3 3 3 2 1 1 1 1 1 1 1 1 1 1 1 1 1 0 0 0 0 0 0 0 0 0 0 1 1 1 1 1 1 1 1
1 1 1 2 2 2 3 3 3 3 3 2 2 1 1 1 1 1 1 1 1 1 1 1 1 1 1 0 0 0 0 0 0 0 0 0 1 1 1 1 1 1 1
1 1 1 2 2 2 2 3 3 3 3 2 2 2 1 1 1 1 1 1 1 1 1 1 1 1 1 1 1 1 0 0 0 0 0 0 0 0 1 1 1 1 1
1 1 1 2 2 2 2 3 3 3 3 2 2 2 2 2 1 1 1 1 1 1 1 1 1 1 1 1 1 1 1 0 0 0 0 0 0 0 0 0 0 1 1
1 1 1 2 2 2 2 3 3 3 3 3 2 2 2 2 2 2 2 2 1 1 1 1 1 1 1 1 1 1 1 0 0 0 0 0 0 0 0 0 0 0 1
1 1 1 1 2 2 2 2 3 3 3 3 3 2 2 2 2 2 2 2 2 2 2 1 1 1 1 1 1 1 1 0 0 0 0 0 0 0 0 0 0 0 1
1 1 1 1 2 2 2 2 2 2 3 3 2 2 2 2 2 2 2 2 2 2 2 2 2 1 1 1 1 1 1 1 0 0 0 0 0 0 0 0 0 0 1
1 1 1 1 1 1 2 2 2 2 2 2 2 2 2 2 2 2 2 2 2 2 2 2 2 2 2 1 1 1 1 0 0 0 0 0 0 0 0 0 0 0 0
1 1 1 1 1 1 1 1 1 1 1 1 1 1 1 1 1 1 1 2 2 3 3 3 2 2 2 2 1 1 0 0 0 0 0 0 0 0 0 0 0 1 0
1 1 1 1 1 1 1 1 1 1 1 1 1 1 1 1 1 1 1 2 3 3 3 3 3 2 2 2 1 1 0 0 0 0 0 0 0 0 0 0 1 1 1
1 1 1 1 1 1 1 1 1 1 1 1 1 1 1 1 0 0 1 1 2 3 3 2 2 2 2 2 1 1 0 0 0 0 0 0 0 0 1 1 1 1 1
1 1 1 1 1 1 1 1 1 1 1 1 1 1 1 1 1 0 0 1 1 2 2 2 1 2 2 2 2 1 1 1 1 1 0 0 0 1 1 1 1 1 2
1 1 1 1 1 1 1 1 1 1 1 1 1 1 1 1 1 1 0 1 1 1 1 1 1 1 2 2 2 2 2 1 1 1 1 0 0 1 1 1 1 1 2
1 1 1 1 1 1 1 1 1 1 1 1 1 1 1 1 1 1 1 1 1 1 1 1 1 1 1 2 2 2 2 2 2 1 1 0 0 0 1 1 1 1 1
1 1 1 1 1 1 1 1 1 1 1 1 1 1 1 1 1 1 1 1 1 1 1 1 0 0 0 1 1 1 1 1 1 1 1 0 0 0 0 1 1 1 1
1 1 1 1 1 1 1 1 1 1 1 1 1 1 1 1 1 1 1 1 1 1 1 0 0 0 0 0 0 0 1 1 1 1 1 0 0 0 0 0 1 1 1
1 1 1 1 1 1 1 1 1 2 1 1 1 1 1 1 1 1 1 0 0 0 0 0 0 0 0 0 0 0 0 0 0 0 0 0 0 0 0 0 0 1 1
1 1 1 1 1 1 1 1 1 2 2 2 1 1 1 1 1 1 0 0 0 0 0 0 0 0 0 0 0 0 0 0 0 0 0 0 0 0 0 0 0 0 0
0 0 1 1 1 1 1 1 1 2 2 2 2 1 1 1 1 1 0 0 0 0 0 0 0 0 0 0 0 0 0 0 0 0 0 0 0 0 0 0 0 0 0
0 0 0 0 1 1 1 2 2 2 2 2 2 1 1 1 1 1 0 0 0 0 0 0 0 0 0 0 0 0 0 0 0 0 0 0 0 0 0 0 0 0 0
0 0 0 0 0 1 1 2 2 1 2 2 2 1 1 1 1 1 1 0 0 0 0 0 0 0 0 0 0 0 0 0 0 0 0 0 0 0 0 0 0 0 0
0 0 0 0 0 0 1 1 2 1 1 1 1 1 1 1 1 0 0 0 0 0 0 0 0 0 0 0 0 0 0 0 0 0 0 0 0 0 0 0 0 0 0
0 0 0 0 0 0 0 1 2 1 1 1 1 1 1 1 1 0 0 0 0 0 0 0 0 0 0 0 0 0 0 0 0 0 0 0 0 0 0 0 0 0 0
1 1 0 0 0 0 0 1 1 1 1 1 1 1 1 1 1 1 0 0 0 0 0 0 0 0 0 0 0 0 0 0 0 0 0 0 0 0 0 0 0 0 0
1 1 0 0 0 0 0 1 1 1 1 1 1 1 1 1 1 1 1 0 0 0 0 0 0 0 0 0 0 0 0 0 0 0 0 0 0 0 0 0 0 0 0
0 0 0 0 0 0 0 0 1 1 1 1 1 1 1 1 1 1 1 0 0 0 0 0 0 0 0 0 0 0 0 0 0 0 0 0 0 0 0 0 0 0 0
Wind_Speed
3 4 4 6 9 10 10 11 10 10 10 10 10 10 11 11 11 10 10 10 10 11 11 11 11 12 12 12 12 12 12 12 12 11 11 11 11 11 11 9 8 8 10
4 6 5 5 8 9 10 10 10 9 9 10 10 10 10 10 10 10 10 10 10 10 11 11 11 11 11 11 12 12 12 11 11 10 8 9 10 10 10 10 9 8 10
5 6 7 5 7 9 9 9 9 9 9 9 9 9 10 10 9 10 10 9 9 10 11 11 11 11 11 11 11 11 11 11 9 7 5 6 8 9 10 10 10 10 10
6 6 6 7 8 8 9 9 9 9 9 9 9 9 9 9 9 9 9 9 9 10 10 10 11 10 10 10 10 10 10 9 8 4 4 6 6 8 9 9 9 9 9
6 6 6 7 8 9 9 9 8 8 8 8 9 9 9 9 9 9 9 8 8 9 9 10 10 10 10 10 10 9 9 8 5 4 5 5 5 7 8 8 8 8 8
6 6 7 6 8 9 9 9 8 8 8 8 8 8 8 8 8 8 8 8 8 8 9 9 9 9 9 9 9 9 8 6 3 5 5 4 5 6 7 7 7 7 7
6 5 6 6 7 8 9 9 8 8 8 8 8 8 8 7 7 7 8 8 8 7 8 8 8 8 8 8 8 8 8 5 4 4 4 4 5 6 6 7 6 6 6
5 5 6 6 6 7 8 8 8 8 7 7 7 7 7 7 7 6 7 7 7 7 7 8 8 7 7 8 8 8 7 4 3 4 4 4 6 5 5 5 5 5 5
5 4 4 5 6 6 7 7 7 7 7 7 6 6 6 7 7 6 6 6 6 7 7 7 7 7 7 7 7 7 6 4 3 3 3 3 4 4 4 4 5 5 4
4 4 4 4 5 6 6 6 6 6 6 6 6 6 6 6 6 6 5 5 6 6 6 7 7 6 7 6 6 6 4 1 3 3 2 4 4 4 4 4 4 4 4
3 3 3 4 4 5 5 6 6 6 6 5 5 6 5 4 4 4 5 5 5 6 6 6 6 7 6 6 6 4 1 1 2 2 2 5 4 4 4 4 4 4 4
4 4 3 4 4 5 4 5 4 4 4 4 4 4 3 3 3 3 6 5 5 5 6 6 6 6 3 2 3 2 1 1 1 1 2 5 4 3 3 3 4 4 3
4 4 4 4 4 4 4 4 3 3 3 4 4 4 3 3 2 2 2 2 3 3 3 4 4 2 2 1 1 1 1 0 0 1 2 4 4 3 3 3 3 3 3
4 4 4 4 4 5 4 4 3 3 3 3 3 4 3 2 2 2 1 1 2 1 2 2 2 2 2 1 1 1 0 0 0 1 2 3 4 4 3 3 3 3 3
4 4 5 5 5 5 5 3 3 3 3 4 3 4 4 3 3 2 2 1 2 1 2 2 2 2 2 2 1 0 0 0 1 1 0 3 3 4 4 3 3 3 3
5 4 4 5 5 6 5 4 4 3 3 3 3 4 5 3 3 3 2 2 1 1 1 1 2 2 1 1 1 1 1 1 1 1 1 1 3 4 4 4 3 3 4
5 4 4 5 5 6 6 5 4 3 3 3 3 4 5 4 4 3 3 2 2 1 2 2 2 1 1 1 1 1 1 1 1 1 1 1 1 2 4 5 5 4 4
4 4 4 3 5 6 6 5 4 4 4 3 3 3 4 4 4 4 3 3 2 2 2 2 2 1 1 1 1 1 1 1 1 1 1 1 1 2 2 4 6 6 5
3 3 4 4 4 5 5 5 4 4 4 3 3 3 4 4 5 4 3 3 3 2 2 2 2 2 2 2 2 1 1 1 1 2 2 2 2 2 2 2 4 6 6
2 2 3 3 4 4 4 4 3 4 4 3 3 3 4 4 4 4 3 4 4 3 3 2 2 1 1 1 2 2 2 2 2 2 2 2 2 2 3 3 3 3 5
1 2 2 3 3 3 3 4 4 4 4 4 3 4 4 4 4 4 3 4 4 3 4 4 3 2 1 1 2 2 2 2 3 3 2 2 2 3 3 3 3 3 2
1 2 2 3 3 4 3 3 3 3 3 3 3 4 4 4 4 4 4 3 3 3 4 4 3 2 1 2 2 2 2 3 3 2 3 3 3 3 3 3 3 3 3
1 1 1 2 4 4 4 3 3 3 3 3 4 3 4 4 4 4 4 4 4 3 3 4 4 4 3 3 2 2 2 2 1 2 3 3 3 3 3 3 3 4 3
2 1 1 2 2 3 4 4 5 4 4 4 3 3 3 4 4 4 4 4 4 3 3 3 4 4 4 3 3 2 2 2 2 2 2 2 3 4 3 3 3 4 3
1 1 1 1 2 2 3 5 5 4 4 3 3 4 4 4 4 3 3 3 4 3 3 3 4 4 3 4 3 2 3 3 3 3 3 3 2 3 3 4 3 3 3
1 1 1 1 1 2 2 4 5 5 4 4 4 4 3 3 3 3 3 3 3 3 3 3 3 4 4 4 4 3 3 3 3 4 4 4 4 3 3 3 3 3 3
Wind_Direction
169 164 145 143 141 136 131 129 128 126 124 124 122 120 118 113 109 105 103 101 100 99 97 93 90 87 87 84 83 80 77 74 73 71 71 73 72 71 70 63 63 71 68
159 163 141 139 138 136 130 126 128 128 127 128 126 122 121 116 113 111 107 104 103 101 98 95 91 88 86 85 84 81 78 75 72 68 70 77 72 68 67 61 56 64 66
150 155 151 136 131 130 129 128 128 132 131 131 132 128 125 122 118 114 109 106 106 102 99 97 92 89 88 88 86 84 81 77 72 64 67 76 75 68 67 66 64 64 65
148 152 154 132 131 128 129 131 131 132 135 137 136 132 129 126 124 118 113 111 109 104 102 100 97 92 90 89 87 85 82 79 71 59 74 69 72 70 68 67 65 63 62
147 151 136 128 132 130 128 128 132 133 134 137 138 136 132 129 125 118 113 113 111 106 103 100 99 95 92 90 87 85 83 78 73 72 72 70 70 68 65 66 64 61 59
147 150 134 129 133 132 131 130 129 132 136 136 135 134 136 134 129 122 117 113 109 107 106 102 99 97 93 90 87 84 81 77 97 77 68 66 67 66 64 64 65 61 60
146 150 144 130 131 133 135 135 134 131 133 136 132 130 131 130 129 126 120 116 113 111 109 105 102 100 97 93 89 84 77 60 69 71 63 61 63 64 66 63 63 62 59
141 145 144 127 126 130 131 131 135 133 129 125 129 129 128 126 123 126 124 122 120 117 115 111 107 104 101 97 91 84 74 50 72 68 67 67 57 60 65 63 61 63 59
137 143 148 156 151 134 125 123 124 123 120 118 114 118 118 117 112 110 113 118 120 118 117 114 112 108 103 98 91 85 72 36 62 61 55 59 53 58 62 61 58 57 58
138 150 154 161 168 166 152 124 119 115 113 110 103 99 101 109 112 105 110 109 112 113 114 113 112 109 102 96 91 85 75 53 72 66 53 52 37 46 49 55 54 51 54
149 164 169 169 170 172 164 148 140 125 113 116 111 102 110 130 126 116 102 95 104 108 111 114 110 103 101 99 91 88 108 91 74 56 49 37 23 36 46 48 45 41 44
180 182 184 185 178 176 168 163 167 162 151 149 141 139 144 138 124 117 98 92 97 105 112 112 108 112 121 126 113 136 134 89 78 61 48 26 12 19 36 38 31 31 29
193 187 191 192 183 180 174 172 167 166 162 159 151 151 146 137 134 135 134 127 123 126 128 120 131 133 125 115 135 149 94 74 30 43 48 23 7 8 15 20 14 10 12
200 196 196 195 190 185 181 175 172 170 167 161 163 163 156 150 153 154 158 149 144 140 137 143 144 136 136 132 142 146 139 294 334 355 42 22 1 357 353 352 350 345 348
216 208 204 201 196 188 184 181 175 177 175 170 170 172 167 166 170 168 167 161 159 154 158 156 153 150 154 153 151 179 211 309 306 295 59 35 359 351 344 333 331 330 328
222 220 213 207 203 193 186 185 183 179 177 174 176 177 178 179 179 177 174 175 171 173 166 169 159 161 166 165 169 209 251 269 279 280 308 45 22 352 337 323 315 310 308
229 222 216 213 207 199 190 189 186 178 177 177 177 180 182 183 183 182 180 181 180 171 164 161 161 174 178 187 195 211 237 265 271 281 306 311 335 5 343 330 314 304 298
235 223 216 209 204 200 195 190 183 180 178 179 177 179 185 186 187 182 181 187 178 174 175 172 174 186 199 214 224 225 233 240 249 264 270 286 301 307 334 343 329 315 306
240 224 208 201 205 201 198 192 183 178 180 183 182 182 184 188 190 189 186 184 180 178 179 183 196 203 211 220 231 237 235 236 244 251 258 266 279 292 297 319 319 319 311
229 213 203 190 198 199 193 188 182 179 184 185 187 187 185 188 191 192 190 188 182 182 183 188 193 200 216 219 221 233 234 234 241 247 254 256 262 276 288 294 289 292 299
220 200 194 188 187 186 190 192 191 191 187 186 188 186 189 188 191 196 190 189 191 192 192 193 191 194 195 211 222 231 229 227 240 243 250 261 266 274 282 285 286 284 281
240 212 197 203 195 192 200 200 201 191 191 189 185 189 191 190 192 198 197 192 195 198 196 194 188 194 188 196 228 234 234 212 212 235 250 265 272 274 276 281 284 285 288
305 258 219 217 207 198 193 186 175 175 176 184 191 192 194 196 195 197 199 196 196 197 205 203 197 193 196 197 223 246 242 244 259 214 231 246 258 266 273 278 279 280 280
294 284 253 229 218 199 190 188 183 190 196 199 196 194 190 194 196 196 197 198 199 200 205 206 210 205 198 198 205 238 267 280 257 253 220 233 252 264 268 272 271 268 268
314 309 269 218 204 203 199 194 191 199 205 191 187 189 187 189 192 193 197 197 199 202 206 205 205 206 208 209 202 205 225 237 249 253 262 261 263 263 268 268 266 265 262
332 331 320 228 202 194 206 208 199 199 196 187 186 189 190 188 194 199 199 201 201 201 205 205 205 211 216 220 215 209 213 221 222 237 258 270 277 277 276 267 262 267 267